CAPE
0 0 0 0 0 0 0 0 0 0 0 0 0 0 0 0 0 0 0 0 0 0 0 0 0 5 263 788 1113 1288 869 484
0 0 0 0 0 0 0 0 0 0 0 0 0 0 0 0 0 0 0 0 0 0 0 0 0 0 4 3 35 607 997 641
0 0 0 0 0 0 0 0 0 0 0 0 0 0 0 0 0 0 0 0 0 0 0 0 0 0 0 3 9 8 180 513
0 0 0 0 0 0 0 0 0 0 0 0 0 0 0 0 0 0 0 0 0 0 0 0 1 0 0 1 1 7 15 12
0 0 0 0 0 0 0 0 0 0 0 0 0 0 0 0 0 0 0 0 0 1 3 4 3 2 1 2 0 3 8 11
0 0 0 0 0 0 0 0 0 0 0 0 0 0 0 0 0 0 0 0 0 1 6 10 7 8 5 10 14 10 8 2
2 0 0 0 0 0 0 0 0 0 0 2 4 4 2 0 2 1 0 0 1 3 6 10 8 9 9 8 8 11 5 7
6 0 0 0 0 0 0 0 0 0 2 2 3 3 7 4 7 7 10 5 4 7 10 9 9 6 11 14 12 4 3 4
3 0 0 0 0 0 0 0 0 1 3 4 5 5 7 7 8 11 10 10 9 11 9 9 17 16 14 13 18 20 15 23
2 0 0 0 0 0 2 1 1 3 7 6 5 6 8 7 8 11 9 10 10 10 12 11 12 14 15 15 21 19 18 21
0 0 0 0 0 0 2 3 4 5 6 6 5 7 8 8 8 11 11 11 11 11 11 6 6 7 12 15 14 16 16 20
0 0 0 0 0 0 1 3 5 6 6 5 6 7 9 8 9 9 9 10 10 7 11 9 8 7 9 15 12 9 12 16
0 0 0 0 0 0 0 2 5 7 6 6 8 8 9 11 8 6 11 9 11 10 13 11 12 11 12 11 13 19 20 19
0 0 0 0 0 0 0 0 2 3 5 6 9 8 9 10 10 13 12 11 11 11 11 14 21 22 10 15 18 13 12 15
0 0 0 0 0 0 0 0 0 0 0 1 2 3 6 9 10 12 13 13 13 12 13 11 21 20 18 17 15 14 10 10
0 0 0 0 0 0 0 0 0 0 0 0 3 3 3 5 7 10 10 11 12 11 11 11 15 21 36 24 21 22 21 17
0 0 0 0 0 0 0 0 0 0 0 2 3 4 5 6 9 8 12 14 13 13 14 13 16 23 11 14 16 28 24 18
0 1 4 2 0 0 0 0 0 1 1 2 2 3 4 5 7 8 14 14 15 11 20 23 28 31 6 8 13 21 18 23
6 6 8 7 6 2 1 1 2 2 4 4 3 2 2 4 5 6 11 27 16 15 12 23 20 28 8 5 5 12 15 11
CIN
0 0 0 0 0 0 0 0 0 0 0 0 0 0 0 0 0 0 0 0 0 0 0 0 0 -64 -58 0 0 0 0 -7
0 0 0 0 0 0 0 0 0 0 0 0 0 0 0 0 0 0 0 0 0 0 0 0 0 0 -1 -1 -119 -1 -1 0
0 0 0 0 0 0 0 0 0 0 0 0 0 0 0 0 0 0 0 0 0 0 0 0 0 0 0 0 0 -15 -28 -3
0 0 0 0 0 0 0 0 0 0 0 0 0 0 0 0 0 0 0 0 0 0 0 0 0 0 0 0 0 0 0 -28
0 0 0 0 0 0 0 0 0 0 0 0 0 0 0 0 0 0 0 0 0 0 0 0 0 0 0 0 0 0 0 0
0 0 0 0 0 0 0 0 0 0 0 0 0 0 0 0 0 0 0 0 0 0 0 0 0 0 0 0 0 0 0 0
0 0 0 0 0 0 0 0 0 0 0 0 0 0 0 0 0 0 0 0 0 0 0 0 0 0 0 0 0 0 0 0
0 0 0 0 0 0 0 0 0 0 0 0 0 0 0 0 0 0 0 0 0 0 0 0 0 0 0 0 0 0 -1 0
0 0 0 0 0 0 0 0 0 0 0 0 0 0 0 0 0 0 0 0 0 0 0 0 0 0 0 0 0 0 0 0
0 0 0 0 0 0 0 0 0 0 0 0 0 0 0 0 0 0 0 0 0 0 0 0 0 0 0 0 0 0 0 0
0 0 0 0 0 0 0 0 0 0 0 0 0 0 0 0 0 0 0 0 0 0 0 0 0 0 0 0 0 0 0 0
0 0 0 0 0 0 0 0 0 0 0 0 0 0 0 0 0 0 0 0 0 0 0 0 0 0 0 0 0 0 0 0
0 0 0 0 0 0 0 0 0 0 0 0 0 0 0 0 0 0 0 0 0 0 0 0 0 0 0 0 0 0 0 0
0 0 0 0 0 0 0 0 0 0 0 0 0 0 0 0 0 0 0 0 0 0 0 0 0 0 0 0 0 0 0 0
0 0 0 0 0 0 0 0 0 0 0 0 0 0 0 0 0 0 0 0 0 0 0 0 0 0 0 0 0 0 0 0
0 0 0 0 0 0 0 0 0 0 0 0 0 0 0 0 0 0 0 0 0 0 0 0 0 0 0 0 0 0 0 0
0 0 0 0 0 0 0 0 0 0 0 0 0 0 0 0 0 0 0 0 0 0 0 0 0 0 0 0 0 0 0 0
0 0 0 0 0 0 0 0 0 0 0 0 0 0 0 0 0 0 0 0 0 0 0 0 0 0 0 0 0 0 0 0
0 0 0 0 0 0 0 0 0 0 0 0 0 0 0 0 0 0 0 0 0 0 0 0 0 0 0 0 0 0 0 0
Wind_Speed
9 10 11 12 12 13 13 12 15 12 9 6 5 6 5 5 6 8 10 8 10 9 6 7 7 5 7 10 12 10 9 8
9 9 10 11 12 13 15 15 16 12 10 9 6 7 6 6 7 10 11 11 10 9 7 8 7 7 7 8 8 11 12 13
8 8 9 11 12 13 14 15 15 13 9 8 7 7 5 5 7 8 10 12 11 10 9 8 8 7 9 9 8 5 6 7
7 8 10 11 13 13 13 13 14 14 14 8 8 5 6 6 8 7 10 11 11 10 10 9 9 8 8 10 9 9 7 6
6 6 8 9 9 8 11 12 13 13 14 10 12 9 9 8 8 8 9 10 11 11 11 11 11 9 9 10 9 9 7 9
5 6 7 9 10 10 9 10 11 12 12 12 9 9 9 8 8 13 11 10 10 10 10 12 11 9 10 11 13 12 10 10
5 5 6 9 10 10 9 11 11 12 11 12 12 12 12 10 11 10 10 10 9 10 11 12 11 10 11 11 13 14 12 11
4 4 7 8 9 10 9 11 12 13 13 13 12 13 13 12 11 10 13 10 10 12 14 12 11 12 12 12 13 14 13 12
4 4 6 8 9 10 11 11 11 13 13 12 12 12 8 9 10 10 9 10 10 14 14 14 13 13 12 12 11 11 13 12
5 4 7 8 8 10 10 11 11 12 12 11 11 11 12 11 12 11 10 11 11 14 14 14 14 13 13 13 10 12 12 12
6 5 6 7 7 8 9 10 11 10 10 10 10 11 11 11 10 12 13 12 13 14 14 15 15 14 14 13 11 11 13 10
7 6 5 6 6 7 7 8 9 10 10 10 11 12 12 11 11 12 12 13 13 14 14 14 15 15 15 14 14 15 15 14
8 6 6 5 6 5 7 7 8 9 9 10 10 11 12 12 12 13 13 13 13 13 14 14 15 15 16 16 15 14 15 15
10 7 6 5 5 6 7 8 8 7 8 9 9 10 11 12 12 13 13 14 14 13 13 14 15 16 16 16 15 15 15 14
9 9 7 6 6 7 7 8 8 8 8 9 10 11 11 10 11 12 12 13 14 15 15 15 16 17 17 17 14 15 16 15
8 8 7 6 6 6 7 7 8 8 9 9 10 10 10 11 12 12 12 12 13 14 15 16 18 17 15 19 16 17 18 17
9 8 8 7 7 7 7 7 7 7 8 8 8 9 10 11 11 11 11 13 13 14 16 17 19 15 30 28 22 16 19 18
10 9 8 7 7 6 7 7 7 8 8 8 9 9 10 11 11 11 11 12 12 14 15 16 17 19 32 29 25 14 16 17
10 9 9 8 7 7 7 7 7 7 8 8 10 10 10 11 11 11 11 11 12 13 15 16 16 17 30 30 24 15 14 16
Wind_Direction
61 52 46 42 39 35 33 31 24 20 19 358 24 29 31 30 25 16 3 2 357 344 332 336 327 314 307 283 259 235 243 239
85 66 55 53 42 35 31 28 24 20 19 13 4 4 5 2 7 3 357 353 355 345 341 331 327 310 301 301 316 298 257 244
94 80 65 53 45 35 30 27 25 22 15 10 355 339 3 343 356 350 355 347 349 342 339 328 328 312 303 299 288 304 284 273
107 81 59 48 37 30 27 23 18 18 4 7 1 356 342 1 346 344 346 342 341 338 333 327 322 314 313 309 295 283 279 294
101 70 50 37 35 28 23 21 16 14 11 9 5 356 347 347 336 338 327 337 334 334 332 338 329 320 311 302 298 294 276 273
93 61 42 43 32 27 24 18 21 14 4 0 355 356 343 339 336 333 331 331 327 329 338 326 321 316 312 307 296 296 295 284
105 83 55 48 38 29 22 15 22 16 13 6 360 354 342 343 346 334 336 325 328 334 335 321 318 311 309 301 292 285 280 277
120 80 59 45 36 30 24 19 21 15 13 6 1 359 345 343 344 337 331 331 333 331 327 321 317 312 302 296 290 284 279 276
134 85 61 47 38 32 27 22 19 16 12 4 6 358 349 342 347 336 332 332 329 326 324 317 317 309 303 297 291 285 282 277
144 99 60 46 39 38 29 22 26 22 11 4 6 360 358 350 348 346 346 337 330 333 327 326 321 314 310 304 292 288 283 279
150 105 68 53 46 45 37 32 27 21 18 12 9 3 2 353 354 353 347 342 338 336 335 332 329 324 320 314 303 294 286 280
145 115 85 68 59 46 44 38 26 22 17 14 12 11 5 6 5 360 355 349 348 344 341 337 338 335 332 324 317 304 296 291
140 133 115 86 64 47 53 42 35 25 14 12 14 13 7 6 10 6 2 359 356 353 352 351 345 345 341 334 326 319 311 298
146 145 123 97 74 52 40 39 35 29 21 13 15 16 14 5 6 4 4 3 4 4 4 1 355 355 351 350 349 346 337 323
159 141 122 101 75 56 52 43 38 31 31 24 17 16 15 8 7 8 6 10 9 9 11 9 8 9 5 359 2 2 356 348
154 127 122 111 88 73 59 49 44 39 39 33 20 19 16 17 17 14 10 16 15 14 17 15 14 16 12 10 8 12 8 1
143 130 123 106 91 74 68 57 51 51 47 39 26 24 21 22 20 13 14 16 17 19 19 20 18 17 12 13 13 14 13 8
149 135 123 110 91 80 74 70 65 60 52 40 35 30 28 26 21 19 18 17 18 22 21 18 20 16 17 14 12 17 15 9
142 136 129 119 110 93 95 88 76 67 57 46 40 37 33 32 30 26 22 19 21 24 26 22 23 16 17 16 14 15 20 17